This is the latest recevied weather packets stored in our database for station/object Reichnbch. If no packets are shown the sender has not sent any weather packets the latest 10 day(s).
| Time | Temp. | Humidity | Pressure | Rain* | Wind** | Luminosity | Snow |
|---|---|---|---|---|---|---|---|
| 1777640531 | 22.78° C | 26% | 1026.1 hPa | 0 mm | - | - | - |
| 1777638736 | 23.33° C | 32% | 1026.5 hPa | 0 mm | - | - | - |
| 1777636931 | 22.22° C | 28% | 1026.8 hPa | 0 mm | - | - | - |
| 1777635130 | 21.67° C | 32% | 1027.1 hPa | 0 mm | - | - | - |
| 1777633331 | 20.56° C | 31% | 1027.4 hPa | 0 mm | - | - | - |
| 1777631531 | 20° C | 33% | 1027.6 hPa | 0 mm | - | - | - |
| 1777629731 | 18.89° C | 35% | 1027.9 hPa | 0 mm | - | - | - |
| 1777627930 | 17.22° C | 33% | 1028 hPa | 0 mm | - | - | - |
| 1777626132 | 16.67° C | 35% | 1028.1 hPa | 0 mm | - | - | - |
| 1777624331 | 15° C | 35% | 1028.2 hPa | 0 mm | - | - | - |
| 1777622532 | 14.44° C | 38% | 1028.3 hPa | 0 mm | - | - | - |
| 1777620733 | 13.33° C | 38% | 1028 hPa | 0 mm | - | - | - |
| 1777618930 | 12.22° C | 38% | 1028.1 hPa | 0 mm | - | - | - |
| 1777617131 | 11.67° C | 39% | 1028.2 hPa | 0 mm | - | - | - |
| 1777615333 | 10.56° C | 42% | 1028.1 hPa | 0 mm | - | - | - |
| 1777613531 | 9.44° C | 42% | 1028 hPa | 0 mm | - | - | - |
| 1777611731 | 8.89° C | 43% | 1027.7 hPa | 0 mm | - | - | - |
| 1777609931 | 9.44° C | 41% | 1027.5 hPa | 0 mm | - | - | - |
| 1777608131 | 9.44° C | 41% | 1027.4 hPa | 0 mm | - | - | - |
| 1777606332 | 8.89° C | 42% | 1027.5 hPa | 0 mm | - | - | - |
| 1777604532 | 9.44° C | 42% | 1027.6 hPa | 0 mm | - | - | - |
| 1777602733 | 9.44° C | 41% | 1027.5 hPa | 0 mm | - | - | - |
| 1777600931 | 10° C | 41% | 1027.5 hPa | 0 mm | - | - | - |
| 1777599131 | 10° C | 41% | 1027.7 hPa | 0 mm | - | - | - |
| 1777597332 | 10° C | 41% | 1027.6 hPa | 0 mm | - | - | - |
* Rain since midnight (hover to see other rain measurements)
** Current wind speed in m/s (hover to see current wind gust speed)